Weather History for KTVL - February, 2013

Change the Weather History Date:

Tuesday, February 26, 2013

  Actual Average Record
Temperature  
Mean Temperature 30 °F 32 °F  
Max Temperature 43 °F 46 °F 57 °F (1992)
Min Temperature 16 °F 19 °F -15 °F (2011)
Degree Days  
Heating Degree Days 35 33  
Month to date heating degree days 889 890  
Since 1 July heating degree days 4960 5172  
Cooling Degree Days 0 0  
Month to date cooling degree days 0 0  
Year to date cooling degree days 0 0  
Moisture  
Dew Point 8 °F    
Average Humidity 46    
Maximum Humidity 74    
Minimum Humidity 17    
Precipitation  
Precipitation 0.00 in - 2.01 in (1940)
Month to date precipitation 0.19  
Year to date precipitation 0.90  
Sea Level Pressure  
Sea Level Pressure 30.22 in    
Wind  
Wind Speed 2 mph (ESE)    
Max Wind Speed 13 mph    
Max Gust Speed 21 mph    
Visibility 10 miles    
Events      
T = Trace of Precipitation, MM = Missing Value Source: NWS Daily Summary

Daily Weather History Graph

Daily Weather History Graph

Search for Another Location

Airport or City:

Trip Planner

Search our weather history database for the weather conditions in past years. The results will help you decide how hot, cold, wet, or windy it might be!

Date:

Astronomy

Feb. 26, 2013 Rise Set
Actual Time 6:36 AM PST 5:49 PM PST
Civil Twilight 6:09 AM PST 6:16 PM PST
Nautical Twilight 5:38 AM PST 6:47 PM PST
Astronomical Twilight 5:07 AM PST 7:18 PM PST
Moon 7:10 PM PST (2/26) 6:42 AM PST (2/26)
Length of Visible Light 12h 07m
Length of Day
11h 13m
Full, 99% of the Moon is Illuminated
Feb 26
Full
Mar 4
Last Quarter
Mar 11
New
Mar 19
First Quarter
Mar 27
Full

Hourly Weather History & Observations

Time (PST) Temp. Windchill Dew Point Humidity Pressure Visibility Wind Dir Wind Speed Gust Speed Precip Events Conditions
12:53 AM 25.0 °F - 12.9 °F 60% 30.14 in 10.0 mi Calm Calm - N/A   Clear
1:53 AM 23.0 °F 18.4 °F 12.0 °F 63% 30.13 in 10.0 mi SSW 3.5 mph - N/A   Clear
2:53 AM 19.9 °F - 12.0 °F 71% 30.16 in 10.0 mi Calm Calm - N/A   Clear
3:53 AM 19.0 °F - 10.9 °F 71% 30.17 in 10.0 mi Calm Calm - N/A   Clear
4:53 AM 18.0 °F 11.1 °F 10.0 °F 71% 30.19 in 10.0 mi SSW 4.6 mph - N/A   Clear
5:53 AM 17.1 °F - 9.0 °F 71% 30.24 in 10.0 mi Calm Calm - N/A   Clear
6:53 AM 17.1 °F - 8.1 °F 68% 30.26 in 10.0 mi Calm Calm - N/A   Clear
7:53 AM 19.0 °F 13.9 °F 10.0 °F 68% 30.26 in 10.0 mi South 3.5 mph - N/A   Clear
8:53 AM 30.9 °F - 10.9 °F 43% 30.22 in 10.0 mi Calm Calm - N/A   Clear
9:53 AM 35.1 °F 31.0 °F 12.0 °F 39% 30.20 in 10.0 mi NE 4.6 mph - N/A   Clear
10:53 AM 37.9 °F 32.1 °F 6.1 °F 27% 30.20 in 10.0 mi NE 8.1 mph - N/A   Clear
11:53 AM 39.0 °F 33.4 °F 9.0 °F 29% 30.20 in 10.0 mi NNE 8.1 mph - N/A   Clear
12:53 PM 39.9 °F 34.5 °F 3.0 °F 21% 30.19 in 10.0 mi NNE 8.1 mph - N/A   Clear
1:53 PM 42.1 °F 37.7 °F -0.0 °F 17% 30.17 in 10.0 mi NNE 6.9 mph - N/A   Clear
2:53 PM 43.0 °F 39.5 °F 1.0 °F 17% 30.19 in 10.0 mi Variable 5.8 mph - N/A   Clear
3:53 PM 41.0 °F 37.1 °F -0.0 °F 18% 30.21 in 10.0 mi NNE 5.8 mph - N/A   Clear
4:53 PM 37.9 °F - 5.0 °F 25% 30.25 in 10.0 mi Calm Calm - N/A   Clear
5:53 PM 33.1 °F - 8.1 °F 35% 30.27 in 10.0 mi Calm Calm - N/A   Clear
6:53 PM 30.0 °F - 12.0 °F 47% 30.31 in 10.0 mi Calm Calm - N/A   Clear
7:53 PM 28.0 °F - 10.9 °F 49% 30.32 in 10.0 mi Calm Calm - N/A   Clear
8:53 PM 27.0 °F 21.6 °F 10.9 °F 51% 30.28 in 10.0 mi South 4.6 mph - N/A   Clear
9:53 PM 26.1 °F - 10.0 °F 51% 30.27 in 10.0 mi Calm Calm - N/A   Clear
10:53 PM 25.0 °F 20.7 °F 10.0 °F 53% 30.26 in 10.0 mi SSW 3.5 mph - N/A   Clear
11:53 PM 23.0 °F 18.4 °F 10.0 °F 58% 30.27 in 10.0 mi SSW 3.5 mph - N/A   Clear